Regional Weather Roundup
Issued by NWS Little Rock, AR

Home | Current Version | Previous Version | Text Only | Print | Product List | Glossary Off
Versions: 1 2 3 4 5 6 7 8 9 10 11 12 13 14 15 16 17 18 19 20 21 22 23 24 25 26 27 28 29 30 31 32 33 34 35 36 37 38 39 40 41 42 43 44 45 46 47 48 49 50

000
ASUS44 KLZK 050505
RWRLZK

WEATHER ROUNDUP FOR ARKANSAS
NATIONAL WEATHER SERVICE LITTLE ROCK AR
1200 AM CDT SUN JUL 05 2015

NOTE: "FAIR" INDICATES FEW OR NO CLOUDS BELOW 12,000 FEET WITH NO
SIGNIFICANT WEATHER AND/OR OBSTRUCTIONS TO VISIBILITY.

ARZ001-003-010-029-050600-
NORTHWEST ARKANSAS

CITY           SKY/WX    TMP DP  RH WIND       PRES   REMARKS
FAYETTEVILLE   CLEAR     69  69 100 CALM      30.02R FOG
FORT SMITH     CLEAR     77  71  82 CALM      29.97R
HARRISON       CLEAR     71  69  93 SE6       30.04R FOG
BENTONVILLE    CLEAR     73  66  78 SE5       30.02S
ROGERS         PTCLDY    73  68  84 E6        30.03S
SILOAM SPGS    CLEAR     73  66  78 CALM        N/A
HIGHFILL       CLEAR     74  71  91 E3        30.01S FOG
$$

ARZ004-005-016-050600-
NORTH CENTRAL ARKANSAS

CITY           SKY/WX    TMP DP  RH WIND       PRES   REMARKS
BATESVILLE     MOCLDY    73  70  88 CALM      30.02S
FLIPPIN          N/A     72  68  88 CALM      30.01R
MTN HOME       CLEAR     72  69  90 SE3       30.02S
$$

ARZ040-041-050600-
WEST CENTRAL ARKANSAS

CITY           SKY/WX    TMP DP  RH WIND       PRES   REMARKS
MENA           MOCLDY    75  72  88 S6        30.04R
MOUNT IDA      CLOUDY    75  70  84 VRB3      30.00R
$$

ARZ009-017-025-026-028-050600-
NORTHEAST ARKANSAS

CITY           SKY/WX    TMP DP  RH WIND       PRES   REMARKS
JONESBORO      CLOUDY    73  72  96 CALM      30.02R
NEWPORT        MOCLDY    75  74  97 CALM      30.03S
WALNUT RIDGE   PTCLDY    73  70  88 S3        30.02S
BLYTHEVILLE    MOCLDY    72  72 100 S5        30.03S
$$

ARZ022-023-033-042-044-050600-
CENTRAL ARKANSAS

CITY           SKY/WX    TMP DP  RH WIND       PRES   REMARKS
LITTLE ROCK    PTCLDY    73  69  87 S3        30.01S
N LITTLE ROCK  PTCLDY    74  72  92 SW7       30.01F
JACKSONVILLE   CLEAR     75  71  88 S3        30.00F
SEARCY         MOCLDY    72  70  93 S3        30.03R
HOT SPRINGS    MOCLDY    74  69  85 SW5       30.02S
RUSSELLVILLE   CLEAR     75  72  90 SE5       29.99R
$$

ARZ036-050600-
EAST ARKANSAS

CITY           SKY/WX    TMP DP  RH WIND       PRES   REMARKS
WEST MEMPHIS   MOCLDY    71  71 100 CALM      30.02R
$$

ARZ050-053-066-070-073-050600-
SOUTHWEST ARKANSAS

CITY           SKY/WX    TMP DP  RH WIND       PRES   REMARKS
ARKADELPHIA    FAIR      73  73 100 CALM      30.02S
CAMDEN         MOCLDY    70  66  88 CALM      30.01S
TEXARKANA      MOCLDY    71  70  96 S6        30.00R
EL DORADO      CLOUDY    69  68  96 E5        30.01S
DE QUEEN       CLEAR     72  70  93 CALM      30.00R
$$

ARZ056-057-069-050600-
SOUTHEAST ARKANSAS

CITY           SKY/WX    TMP DP  RH WIND       PRES   REMARKS
PINE BLUFF     CLEAR     71  69  93 S5        30.02S
STUTTGART      CLEAR     72  68  88 S7        30.00F
MONTICELLO     CLEAR     70  70 100 CALM      30.02S

$$





USA.gov is the U.S. government's official web portal to all federal, state and local government web resources and services.